NOAA 19 (33591 NORAD) Tracking and Keplerian Element Data

This shows tracking and keplerian element data for the satellite.

Feedback or suggestion? Click here.




ElementValue
Catalog33591
NameNOAA 19
Epoch Orbit63136
Epoch Day130.93642727
Epoch Year2021
RAAN150.7082
Inclination99.1858
Eccentricity0.0013122
Argument of Perigee235.1767
Mean Anonmoly124.8169
Mean Motion14.12466011
Decay Rate6.2E-07
L11 33591U 09005A 21130.93642727 .00000062 00000-0 58842-4 0 9991
L22 33591 99.1858 150.7082 0013122 235.1767 124.8169 14.12466011631362

Live tracking and technical data element details for NOAA 19 (NORAD 33591). NOAA 19 can be tracked NOW for your location showing map with azimuth and elevation plus other details from your city location.

Track the satellite on the map from your city or location and see movement details for azimuth, elevation, latitude, longitude, range, height, and movement on the map or in text.







IsCatalogInMostPopularTable: catalog: 33591, numindb: 1263
Update: records affected: 1



GetName: 33591 NOAA 19

Hit Count: updated at: Tue, 11 May 2021 20:45:43 GMT